Tracking 33165 objects as of 7-Feb-2026
HD Live streaming from Space Station
objects crossing your sky now

STARLINK-35721

Track STARLINK-35721 now!
10-day predictions


NORAD ID: 67046
Int'l Code: 2025-294S
Perigee: 450.8 km
Apogee: 451.2 km
Inclination: 43.0 °
Period: 93.5 minutes
Semi major axis: 6821 km
RCS: Unknown
Launch date: December 11, 2025
Source: United States (US)
Launch site: AIR FORCE EASTERN TEST RANGE (AFETR)
Your satellite tracking list
Your tracking list is empty




NASA's NSSDC Master Catalog

Two Line Element Set (TLE):
1 67046U 25294S   26038.48579749  .00078493  00000-0  18626-2 0  9993
2 67046  42.9964 209.1897 0000315 242.9149 117.1675 15.40772041 10173
Source of the keplerian elements: AFSPC